[[{"header":{"parameterUnit":"m.s-1","parameterCategory":1,"la1":30.2991,"la2":30.254,"lo1":-89.0895,"lo2":-89.0444,"dy":0.0017,"dx":0.0017,"nx":28,"ny":28,"refTime":"2024-08-18T21:00:00:Z","depth":0,"parameterNumber":2,"parameterNumberName":"U-component_of_WINDS"},"data":[0,0,0,0,0,0,0,0,0,0,0,0,0,0,0,0,0,0,0,0,0,0,0,0,0,0,0,0,0,0,0,0,0,0,0,0,0,0,0,0,0,0,0,0,0,0,0,0,0,0,0,0,0,0,0,0,0,0,-0.0154,-0.0154,0,-0.0156,-0.0156,-0.0156,-0.025,-0.0253,-0.0255,-0.0257,-0.0251,-0.0248,-0.0246,0,0,0,0,0,0,0,0,0,0,0,0,0,-0.0225,-0.0223,-0.0154,-0.0154,-0.0154,-0.0156,-0.0156,-0.0156,-0.025,-0.0253,-0.0256,-0.0258,-0.0252,-0.0249,-0.0246,0,0,0,0,0,0,0,0,0,0,0,0,0,-0.0206,-0.0222,-0.0154,-0.0201,-0.0206,-0.0156,-0.0156,-0.0156,-0.0249,-0.0253,-0.0256,-0.026,-0.0253,-0.0249,-0.0245,-0.0148,0,0,-0.0234,-0.0232,0,0,0,0,0,0,0,0,-0.0207,-0.0204,-0.0194,-0.0198,-0.0203,-0.0207,-0.0178,-0.0153,-0.0248,-0.0232,-0.0257,-0.0262,-0.0233,-0.0231,-0.0223,-0.0147,-0.0147,-0.0234,-0.0231,-0.023,-0.0229,0,0,0,0,0,0,0,-0.0209,-0.0204,-0.0155,-0.0194,-0.0199,-0.022,-0.0221,-0.0174,-0.0211,-0.0234,-0.0241,-0.024,-0.0236,-0.0226,-0.0223,-0.0147,-0.0234,-0.023,-0.0228,-0.0227,0.0011,0.0015,0,0,0,0,0,0,-0.0204,-0.0205,-0.0154,-0.0155,-0.0215,-0.0216,-0.0217,-0.0201,-0.0212,-0.0217,-0.0237,-0.0244,-0.0231,-0.0227,-0.0223,-0.0107,-0.023,-0.0226,-0.0224,0.0007,0.0012,0.0016,0,0,0,0,0,0,-0.0206,-0.0199,-0.0154,-0.0182,-0.0178,-0.0211,-0.0192,-0.02,-0.019,-0.0215,-0.0221,-0.0221,-0.0233,-0.0229,-0.0166,-0.0109,-0.0225,-0.0221,0.0002,0.0008,0.0014,0.0124,0,0,0,0,0,0,-0.0207,-0.0199,-0.0164,-0.018,-0.0176,-0.0099,-0.0188,-0.0197,-0.0184,-0.0194,-0.0201,-0.0206,-0.0236,-0.0171,-0.0162,-0.0106,-0.0218,-0.0003,0.0005,0.0012,0.0115,0.0133,0.0148,0,0,0,0,0,-0.0209,-0.0132,-0.0162,-0.0155,-0.0133,-0.0095,-0.0093,-0.0131,-0.018,-0.0143,-0.0159,-0.0205,-0.0117,-0.0164,-0.0155,-0.0096,-0.0007,0.0002,0.0011,0.0108,0.013,0.0148,0,0,0,0,0,0,-0.0105,-0.0135,-0.0168,-0.0094,-0.0092,-0.0112,-0.0067,-0.0107,-0.0089,-0.0099,-0.0146,-0.0146,-0.0075,-0.008,-0.0131,-0.0001,-0.007,-0.0059,0.0,0.0021,0.0037,0.0038,-0.0215,0,0,0,0,0,-0.0074,-0.0043,-0.007,-0.0002,0.0001,-0.0033,-0.0018,-0.0049,-0.0047,-0.0046,-0.0057,-0.0051,-0.0022,-0.0002,0.0024,0.0113,0.0112,0.0158,0.0174,0.0188,0.02,0.025,0.0271,0.0046,0.0046,0.0046,0,0,-0.0008,-0.002,0.0002,0.0019,0.0017,0.0053,-0.0031,0.0009,0.0036,-0.0039,0.002,0.0012,0.0015,0.0093,0.0126,0.0091,0.0261,0.02,0.0211,0.0215,0.0261,0.0283,0.0302,0.0052,0.0051,0.005,0,0,0.0131,0.0123,0.018,0.0179,0.0176,0.0153,0.0167,0.0153,0.0145,0.0202,0.0147,0.0179,0.0229,0.0235,0.0244,0.0385,0.0344,0.0394,0.0483,0.0532,0.055,0.0565,0.0619,0.0638,0.0405,0.0405,0.0405,0,0.0214,0.0263,0.0215,0.026,0.027,0.02,0.026,0.0262,0.027,0.028,0.0239,0.0302,0.0299,0.0377,0.0412,0.042,0.0437,0.0396,0.055,0.0565,0.0579,0.063,0.065,0.0412,0.0411,0.041,0.041,0,0.0367,0.0402,0.0449,0.0455,0.047,0.0522,0.0485,0.0506,0.0474,0.0457,0.0517,0.0511,0.0535,0.055,0.052,0.0626,0.0604,0.0558,0.0488,0.0608,0.0655,0.0674,0.0421,0.0418,0.0417,0.0415,0,0,0.0575,0.0552,0.0571,0.0573,0.0565,0.0592,0.0642,0.0662,0.0684,0.069,0.0733,0.0777,0.0734,0.0745,0.0714,0.0757,0.0873,0.0705,0.0705,0.074,0.0993,0.1031,0.1054,0.0844,0.0847,0.085,0.0994,0,0.0712,0.0793,0.0751,0.084,0.0873,0.0807,0.085,0.0852,0.0836,0.0864,0.0848,0.0881,0.0819,0.0826,0.0864,0.0851,0.0924,0.0839,0.0888,0.089,0.0893,0.1078,0.1118,0.1254,0.1011,0.1014,0.1017,0,0.0883,0.0895,0.0986,0.0972,0.0985,0.1024,0.1041,0.1067,0.1068,0.1054,0.1065,0.1025,0.1076,0.1004,0.1075,0.1019,0.1036,0.1032,0.1036,0.1043,0.0964,0.1094,0.1296,0.1319,0.1044,0.1042,0.104,0,0.103,0.1069,0.1129,0.1132,0.1117,0.1147,0.1142,0.1139,0.1155,0.1169,0.118,0.1201,0.1214,0.1233,0.1201,0.115,0.1279,0.1203,0.1272,0.1273,0.1305,0.1305,0.1518,0.131,0.1309,0.1309,0.1309,0,0.119,0.125,0.1194,0.1232,0.1297,0.1249,0.1316,0.1305,0.1302,0.1339,0.1282,0.1318,0.1272,0.1304,0.1279,0.1344,0.135,0.1343,0.1336,0.135,0.1352,0.1364,0.1355,0.1314,0.1313,0.1312,0.1311,0,0.1367,0.1332,0.1394,0.1373,0.1369,0.1419,0.1403,0.1438,0.1417,0.1464,0.1472,0.1442,0.1477,0.1445,0.148,0.1463,0.1551,0.1529,0.1551,0.1546,0.1619,0.1614,0.1851,0.1881,0.1649,0.1652,0.1653,0,0.1474,0.1518,0.1501,0.152,0.1518,0.1549,0.1564,0.1519,0.1537,0.1541,0.1577,0.1607,0.1629,0.1688,0.1671,0.1698,0.1678,0.1759,0.1682,0.1696,0.1685,0.1684,0.169,0.1777,0.178,0.1782,0.1784,0,0.1668,0.1648,0.167,0.1687,0.1706,0.1717,0.1725,0.1744,0.1698,0.1722,0.1756,0.1772,0.1806,0.1838,0.1858,0.1857,0.1815,0.1807,0.1825,0.1843,0.1855,0.1853,0.1598,0.1803,0.1801,0.18,0.1799,0.1798,0.1816,0.1852,0.1846,0.1874,0.1874,0.1882,0.1915,0.1897,0.1924,0.1946,0.1918,0.1961,0.1962,0.1985,0.1988,0.2023,0.199,0.2015,0.2022,0.2031,0.2043,0.1845,0.2026,0.2025,0.2025,0.2024,0.2024,0,0.2011,0.2003,0.2028,0.2039,0.2062,0.2014,0.202,0.2044,0.2081,0.2084,0.2105,0.2146,0.2176,0.216,0.2187,0.2219,0.22,0.2228,0.2228,0.2229,0.2069,0.2052,0.2242,0.2242,0.2242,0.2242,0.2242,0.2242,0.2115,0.2175,0.2155,0.2216,0.2208,0.2247,0.2255,0.2264,0.2266,0.2313,0.2337,0.2325,0.2321,0.2348,0.2375,0.2369,0.2384,0.242,0.2409,0.2261,0.2239,0.2219,0.2204,0.2422,0.2422,0.2566,0.2567,0.2568]},{"header":{"parameterUnit":"m.s-1","parameterCategory":1,"la1":30.2991,"la2":30.254,"lo1":-89.0895,"lo2":-89.0444,"dy":0.0017,"dx":0.0017,"nx":28,"ny":28,"refTime":"2024-08-18T21:00:00:Z","depth":0,"parameterNumber":3,"parameterNumberName":"V-component_of_WINDS"},"data":[0,0,0,0,0,0,0,0,0,0,0,0,0,0,0,0,0,0,0,0,0,0,0,0,0,0,0,0,0,0,0,0,0,0,0,0,0,0,0,0,0,0,0,0,0,0,0,0,0,0,0,0,0,0,0,0,0,0,-2.5905,-2.5905,0,-2.5903,-2.5903,-2.5903,-2.5898,-2.5898,-2.5898,-2.5898,-2.5896,-2.5896,-2.5897,0,0,0,0,0,0,0,0,0,0,0,0,0,-2.5902,-2.5902,-2.5905,-2.5905,-2.5904,-2.5903,-2.5903,-2.5903,-2.5898,-2.5898,-2.5898,-2.5898,-2.5896,-2.5896,-2.5897,0,0,0,0,0,0,0,0,0,0,0,0,0,-2.5902,-2.5902,-2.5905,-2.5902,-2.5901,-2.5903,-2.5903,-2.5903,-2.5898,-2.5898,-2.5898,-2.5897,-2.5896,-2.5896,-2.5897,-2.5901,0,0,-2.5897,-2.5897,0,0,0,0,0,0,0,0,-2.5902,-2.5902,-2.5902,-2.5902,-2.5902,-2.5901,-2.5902,-2.5903,-2.5898,-2.5899,-2.5898,-2.5897,-2.5898,-2.5898,-2.5898,-2.5901,-2.5901,-2.5897,-2.5897,-2.5897,-2.5897,0,0,0,0,0,0,0,-2.5902,-2.5902,-2.5904,-2.5902,-2.5902,-2.59,-2.59,-2.5902,-2.59,-2.5899,-2.5899,-2.5899,-2.5898,-2.5898,-2.5898,-2.5901,-2.5897,-2.5897,-2.5897,-2.5897,-2.5907,-2.5907,0,0,0,0,0,0,-2.5902,-2.5902,-2.5904,-2.5904,-2.5901,-2.5901,-2.59,-2.5901,-2.59,-2.5899,-2.5899,-2.5898,-2.5898,-2.5898,-2.5898,-2.5903,-2.5897,-2.5897,-2.5897,-2.5907,-2.5907,-2.5907,0,0,0,0,0,0,-2.5902,-2.5903,-2.5904,-2.5903,-2.5903,-2.5901,-2.5902,-2.5901,-2.5901,-2.5899,-2.5899,-2.59,-2.5898,-2.5898,-2.59,-2.5903,-2.5897,-2.5897,-2.5907,-2.5907,-2.5907,-2.5913,0,0,0,0,0,0,-2.5902,-2.5903,-2.5905,-2.5903,-2.5903,-2.5907,-2.5902,-2.5901,-2.5902,-2.5901,-2.59,-2.59,-2.5898,-2.59,-2.59,-2.5903,-2.5897,-2.5906,-2.5907,-2.5907,-2.5913,-2.5913,-2.5914,0,0,0,0,0,-2.5902,-2.5906,-2.5905,-2.5905,-2.5905,-2.5907,-2.5907,-2.5904,-2.5902,-2.5904,-2.5902,-2.59,-2.5902,-2.59,-2.5901,-2.5903,-2.5906,-2.5907,-2.5907,-2.5912,-2.5913,-2.5914,0,0,0,0,0,0,-2.5908,-2.5906,-2.5904,-2.5908,-2.5907,-2.5906,-2.5908,-2.5906,-2.5906,-2.5905,-2.5902,-2.5902,-2.5905,-2.5904,-2.5902,-2.5907,-2.5904,-2.5904,-2.5908,-2.5909,-2.5909,-2.591,-2.5898,0,0,0,0,0,-2.591,-2.5911,-2.5909,-2.5913,-2.5913,-2.591,-2.5911,-2.5909,-2.5908,-2.5908,-2.5907,-2.5907,-2.5907,-2.5908,-2.5909,-2.5912,-2.5912,-2.5914,-2.5915,-2.5916,-2.5916,-2.5918,-2.5919,-2.5909,-2.5909,-2.5909,0,0,-2.5913,-2.5912,-2.5913,-2.5914,-2.5913,-2.5915,-2.591,-2.5912,-2.5913,-2.5908,-2.5911,-2.591,-2.5909,-2.5912,-2.5913,-2.5912,-2.5919,-2.5916,-2.5917,-2.5917,-2.5918,-2.5919,-2.592,-2.5909,-2.5909,-2.5909,0,0,-2.592,-2.592,-2.5923,-2.5922,-2.5921,-2.592,-2.592,-2.5919,-2.5918,-2.592,-2.5917,-2.5918,-2.5919,-2.5919,-2.5919,-2.5925,-2.5923,-2.5926,-2.593,-2.5932,-2.5932,-2.5933,-2.5935,-2.5936,-2.5926,-2.5926,-2.5926,0,-2.5925,-2.5927,-2.5924,-2.5926,-2.5926,-2.5922,-2.5925,-2.5924,-2.5924,-2.5924,-2.5922,-2.5923,-2.5923,-2.5925,-2.5927,-2.5927,-2.5928,-2.5926,-2.5933,-2.5933,-2.5934,-2.5936,-2.5937,-2.5927,-2.5927,-2.5926,-2.5926,0,-2.5932,-2.5934,-2.5936,-2.5935,-2.5936,-2.5938,-2.5935,-2.5936,-2.5934,-2.5932,-2.5935,-2.5933,-2.5934,-2.5934,-2.5932,-2.5937,-2.5935,-2.5933,-2.593,-2.5935,-2.5937,-2.5938,-2.5927,-2.5927,-2.5927,-2.5927,0,0,-2.5943,-2.5941,-2.5942,-2.5941,-2.594,-2.5941,-2.5943,-2.5943,-2.5943,-2.5943,-2.5944,-2.5946,-2.5943,-2.5943,-2.5941,-2.5943,-2.5947,-2.594,-2.594,-2.5941,-2.5952,-2.5953,-2.5954,-2.5946,-2.5946,-2.5946,-2.5952,0,-2.595,-2.5953,-2.595,-2.5954,-2.5955,-2.5951,-2.5952,-2.5952,-2.595,-2.5951,-2.5949,-2.595,-2.5947,-2.5947,-2.5948,-2.5947,-2.595,-2.5946,-2.5947,-2.5947,-2.5947,-2.5955,-2.5957,-2.5963,-2.5952,-2.5953,-2.5953,0,-2.5958,-2.5958,-2.5961,-2.596,-2.596,-2.5961,-2.5961,-2.5962,-2.5961,-2.596,-2.5959,-2.5957,-2.5958,-2.5955,-2.5957,-2.5954,-2.5955,-2.5954,-2.5954,-2.5954,-2.595,-2.5955,-2.5964,-2.5965,-2.5954,-2.5954,-2.5954,0,-2.5965,-2.5966,-2.5968,-2.5968,-2.5966,-2.5967,-2.5966,-2.5965,-2.5965,-2.5965,-2.5965,-2.5965,-2.5965,-2.5965,-2.5962,-2.596,-2.5964,-2.5961,-2.5963,-2.5963,-2.5964,-2.5964,-2.5973,-2.5964,-2.5964,-2.5964,-2.5964,0,-2.5973,-2.5975,-2.5972,-2.5973,-2.5975,-2.5972,-2.5974,-2.5973,-2.5972,-2.5973,-2.597,-2.597,-2.5967,-2.5967,-2.5966,-2.5967,-2.5967,-2.5966,-2.5966,-2.5966,-2.5967,-2.5966,-2.5966,-2.5965,-2.5965,-2.5964,-2.5964,0,-2.5982,-2.5979,-2.5981,-2.5979,-2.5979,-2.598,-2.5978,-2.5979,-2.5978,-2.5979,-2.5979,-2.5976,-2.5976,-2.5974,-2.5974,-2.5972,-2.5975,-2.5974,-2.5975,-2.5975,-2.5977,-2.5977,-2.5986,-2.5987,-2.5978,-2.5978,-2.5978,0,-2.5987,-2.5988,-2.5986,-2.5986,-2.5986,-2.5986,-2.5986,-2.5983,-2.5983,-2.5982,-2.5983,-2.5983,-2.5983,-2.5984,-2.5982,-2.5981,-2.598,-2.5983,-2.598,-2.5981,-2.598,-2.598,-2.598,-2.5984,-2.5984,-2.5984,-2.5984,0,-2.5996,-2.5994,-2.5995,-2.5994,-2.5994,-2.5994,-2.5993,-2.5993,-2.599,-2.599,-2.5991,-2.599,-2.599,-2.599,-2.5989,-2.5988,-2.5986,-2.5985,-2.5986,-2.5987,-2.5987,-2.5987,-2.5977,-2.5985,-2.5985,-2.5985,-2.5985,-2.5985,-2.6003,-2.6004,-2.6002,-2.6002,-2.6001,-2.6001,-2.6002,-2.6,-2.6,-2.5999,-2.5997,-2.5998,-2.5997,-2.5995,-2.5995,-2.5995,-2.5993,-2.5994,-2.5994,-2.5994,-2.5995,-2.5988,-2.5995,-2.5995,-2.5995,-2.5995,-2.5995,0,-2.6011,-2.601,-2.601,-2.6009,-2.6009,-2.6007,-2.6006,-2.6006,-2.6006,-2.6005,-2.6005,-2.6005,-2.6005,-2.6003,-2.6002,-2.6003,-2.6002,-2.6003,-2.6003,-2.6002,-2.5996,-2.5996,-2.6004,-2.6004,-2.6004,-2.6004,-2.6004,-2.6004,-2.6016,-2.6017,-2.6016,-2.6017,-2.6015,-2.6016,-2.6015,-2.6015,-2.6014,-2.6014,-2.6014,-2.6012,-2.6011,-2.601,-2.601,-2.6009,-2.6009,-2.601,-2.6009,-2.6004,-2.6003,-2.6002,-2.6002,-2.6011,-2.6011,-2.6015,-2.6015,-2.6015]}]]